User: anonymous   Login
Location: Colebrook
(42.0017°N, 73.0973°W)
Time: 04:23:17
(UTC-04:00)
Language:

deb Explorer IX - Orbit

View from above orbital plane
View from above orbital plane
View from above satellite
View from above satellite

Ground track
Ground track

The orbit data is extracted from the following two-line orbital elements,

1 00085U 61004C   21293.55364547  .00005374  00000-0  11638-2 0  9990
2 00085  38.7644  37.6265 0376912 170.0385 190.8094 14.22366787   869
Epoch (UTC): 20 October 2021 13:17:14
Eccentricity: 0.0376912
inclination: 38.7644°
perigee height: 546 km
apogee height: 1088 km
right ascension of ascending node: 37.6265°
argument of perigee: 170.0385°
revolutions per day: 14.22366787
mean anomaly at epoch: 190.8094°
orbit number at epoch: 86

The dashed part of the orbit path shows where the satellite is in the earth's shadow,  

DLR